Regional Weather Roundup
Issued by NWS

Home | Current Version | Previous Version | Graphics & Text | Print | Product List | Glossary Off
Versions: 1 2 3 4 5 6 7 8 9 10 11 12 13 14 15 16 17 18 19 20 21 22 23 24 25 26 27 28 29 30 31 32 33 34 35 36 37 38 39 40 41 42 43 44 45 46 47 48 49 50

000
ASUS45 KBOI 242210
RWRID

IDAHO REGIONAL WEATHER ROUNDUP
NATIONAL WEATHER SERVICE BOISE ID
300 PM MST FRI FEB 24 2017

NOTE: "FAIR" INDICATES FEW OR NO CLOUDS BELOW 12000 FEET
WITH NO SIGNIFICANT WEATHER AND/OR OBSTRUCTIONS TO VISIBILITY

IDZ012-014-242300-
SOUTHWEST IDAHO


CITY           SKY/WX    TMP DP  RH WIND       PRES   REMARKS
BOISE          PTSUNNY   36  15  42 W14       30.13F WCI  27
CALDWELL       CLOUDY    37  15  40 W12G17    30.16S WCI  29
MOUNTAIN HOME  PTSUNNY   36  15  42 NW15G22   30.13S WCI  26
$$

IDZ016-017-242300-
SOUTHCENTRAL IDAHO


CITY           SKY/WX    TMP DP  RH WIND       PRES   REMARKS
BURLEY         MIX PCPN  30  13  49 W21       30.09R WCI  17
JEROME           N/A    N/A N/A N/A MISG      30.09S
TWIN FALLS     SUNNY     26  12  55 SW18      30.10R WCI  13
$$

IDZ019>023-242300-
SOUTHEAST IDAHO


CITY           SKY/WX    TMP DP  RH WIND       PRES   REMARKS
IDAHO FALLS    LGT SNOW  20  17  88 SW18      30.04R FOG     WCI   5
POCATELLO      CLOUDY    23  16  74 W20       30.09R WCI   8
REXBURG        LGT SNOW  20  16  84 SW15G26   30.02S FOG     WCI   6
$$

IDZ006-010-011-018-031-032-242300-
CENTRAL IDAHO MOUNTAINS


CITY           SKY/WX    TMP DP  RH WIND       PRES   REMARKS
MCCALL         CLOUDY    25   8  48 SE3       29.97F
HAILEY         LGT SNOW  25  18  74 SE12      29.99R WCI  14
STANLEY          N/A     23   6  48 NW6       29.90S WCI  16
SALMON         CLOUDY    34  16  47 NE3       29.97S
CHALLIS        MOSUNNY   29  11  47 VRB3      29.93S
$$

IDZ002-004-006-007-026-242300-
NORTHERN IDAHO


CITY           SKY/WX    TMP DP  RH WIND       PRES   REMARKS
LEWISTON       CLOUDY    41  17  38 E7        30.16F
LOWELL           N/A     39  18  42 CALM      30.19S
COEUR D`ALENE  LGT SNOW  30  26  85 SE6       30.16F FOG     WCI  24
MULLAN PASS    CLOUDY    19  14  81 NW3       29.96S
$$



USA.gov is the U.S. government's official web portal to all federal, state and local government web resources and services.